Location: Poigny-la-Forêt
(48.6876°N, 1.7701°E)
Time: 09:12:08
(UTC+01:00)

N. Korean satellite - Visible Passes

Search period start: 21 March 2019 00:00
Search period end: 31 March 2019 00:00
Orbit: 456 x 510 km, 97.2° (Epoch: 20 March)

Date Brightness Start Highest point End Pass type
(mag) Time Alt. Az. Time Alt. Az. Time Alt. Az.
21 Mar 10.0 06:05:53 10° ENE 06:07:53 14° E 06:09:53 10° SE visible
25 Mar 10.1 06:00:19 10° ENE 06:01:58 13° E 06:03:36 10° ESE visible
29 Mar 10.4 05:54:51 10° ENE 05:56:00 11° E 05:57:08 10° ESE visible
